Regional Weather Roundup
Issued by NWS

Home | Current Version | Previous Version | Graphics & Text | Print | Product List | Glossary On
Versions: 1 2 3 4 5 6 7 8 9 10 11 12 13 14 15 16 17 18 19 20 21 22 23 24 25 26 27 28 29 30 31 32 33 34 35 36 37 38 39 40 41 42 43 44 45 46 47 48 49 50
000
ASUS45 KCYS 221410
RWRWY

WYOMING REGIONAL WEATHER ROUNDUP
NATIONAL WEATHER SERVICE CHEYENNE WY
700 AM MST SAT NOV 22 2014

NOTE:  "FAIR" INDICATES FEW OR NO CLOUDS BELOW 12,000 FEET
WITH NO SIGNIFICANT WEATHER AND/OR OBSTRUCTIONS TO VISIBILITY.

WYZ001-221500-
YELLOWSTONE NATIONAL PARK

CITY           SKY/WX    TMP DP  RH WIND       PRES   REMARKS
LK YELLOWSTONE   N/A     27  25  92 VRB5      29.68F WCI  22
W YELLOWSTONE  NOT AVBL

$$
WYZ002>013-054>058-071-098>099-221500-
NORTHERN WYOMING

CITY           SKY/WX    TMP DP  RH WIND       PRES   REMARKS
JACKSON        CLOUDY    30  30 100 S10       29.76R VSB 1/2 WCI  21
CODY           MOCLDY    43  27  52 SW37G47   29.48F
GREYBULL       MOCLDY    14  12  92 SE3       29.60F
WORLAND        MOCLDY    17  13  84 VRB7      29.59F WCI   8
SHERIDAN       PTCLDY    29  22  75 N6        29.45F WCI  23
BUFFALO        PTCLDY    35  15  44 W6        29.49R WCI  30
GILLETTE       MOCLDY    38  24  57 SW16G26   29.49R WCI  29
HULETT           N/A    N/A N/A N/A MISG        N/A
NEWCASTLE      FAIR      34  23  64 SE10      29.58F WCI  26

$$
WYZ014>020-022>026-101>103-221500-
CENTRAL WYOMING

CITY           SKY/WX    TMP DP  RH WIND       PRES   REMARKS
BIG PINEY      MOCLDY    22  17  81 E6        29.81F WCI  14
PINEDALE       CLOUDY    27  23  86 SE6       29.83S WCI  20
DUBOIS         FAIR      32  23  69 NW13G24   29.65F WCI  22
LANDER         NOT AVBL
RIVERTON       MOCLDY    28  17  63 SE5       29.65F WCI  23
CASPER         CLOUDY    40  21  46 SW26G37   29.65F WCI  29
DOUGLAS        MOCLDY   N/A N/A N/A W25G41    29.60F

$$
WYZ021-027>030-104>119-221500-
SOUTHERN WYOMING

CITY           SKY/WX    TMP DP  RH WIND       PRES   REMARKS
EVANSTON       PTCLDY    33  22  63 SW20      29.85F WCI  21
KEMMERER       PTSUNNY   34  23  64 SW26G37   29.82F WCI  21
FORT BRIDGER   FAIR      37  24  59 SW12G18   29.86F WCI  29
ROCK SPRINGS   PTCLDY    33  18  53 S9        29.85F WCI  25
DIXON          PTSUNNY   38  17  43 SW10G20   29.98R WCI  31
RAWLINS        MOCLDY    38  17  42 SW24G38   29.85F WCI  27
SARATOGA       CLOUDY    36  21  55 S7        29.92R WCI  30
LARAMIE        MOCLDY    36  16  44 W32G44    29.77F WCI  23
CHEYENNE       MOCLDY    33  16  49 S8        29.74F WCI  26
TORRINGTON     MOCLDY    41  21  44 SW15      29.68F
PINE BLUFFS    FAIR      30  19  64 SW6       29.75F WCI  24

$$


USA.gov is the U.S. government's official web portal to all federal, state and local government web resources and services.